{"data":{"norad_id":57114,"epoch":"2026-09-20T11:18:06.872832Z","epoch_age_seconds":123444,"freshness":"FRESH","line1":"1 57114U 23090P   26263.47091288  .00000605  00000+0  31502-4 0  9995","line2":"2 57114  43.0018 261.3642 0001306 264.7748  95.2955 15.27580138180125","mean_motion":15.27580138,"eccentricity":0.0001306,"inclination_deg":43.0018,"raan_deg":261.3642,"arg_perigee_deg":264.7748,"mean_anomaly_deg":95.2955,"bstar":3.1502e-5,"rev_number":18012,"period_min":94.266740197692,"perigee_km":482.15261196786,"apogee_km":483.94475366822,"semimajor_km":6861.185682818,"source":"CELESTRAK","updated_at":"2026-09-21T09:00:33.560653Z"}}